<?xml version='1.0' encoding='UTF-8'?>
<gpx xmlns="http://www.topografix.com/GPX/1/1" creator="www.balnam.be" version="1.1" xmlns:xsi="http://www.w3.org/2001/XMLSchema-instance" xsi:schemaLocation="http://www.topografix.com/GPX/1/1 http://www.topografix.com/GPX/1/1/gpx.xsd">
<trk>
<name>hcmsr10</name>
<cmt>v</cmt>
<desc>Saint-Rémy Chemin n°10 </desc>
<link href="https://chemins.be/saintremy/chemin/10"/><trkseg>
<trkpt lat="50.048154" lon="4.291706"><time>2026-05-03T04:44:15Z</time></trkpt>
<trkpt lat="50.048209" lon="4.290268"><time>2026-05-03T04:54:15Z</time></trkpt>
<trkpt lat="50.049064" lon="4.286149"><time>2026-05-03T05:04:15Z</time></trkpt>
<trkpt lat="50.049229" lon="4.284089"><time>2026-05-03T05:14:15Z</time></trkpt>
<trkpt lat="50.051406" lon="4.278252"><time>2026-05-03T05:24:15Z</time></trkpt>
<trkpt lat="50.053156" lon="4.270549"><time>2026-05-03T05:34:15Z</time></trkpt>
</trkseg>
</trk>
<trk>
<name>hcmsr12</name>
<cmt>v</cmt>
<desc>Saint-Rémy Chemin n°12 </desc>
<link href="https://chemins.be/saintremy/chemin/12"/><trkseg>
<trkpt lat="50.034473" lon="4.298098"><time>2026-05-03T04:44:15Z</time></trkpt>
<trkpt lat="50.032954" lon="4.296126"><time>2026-05-03T04:54:15Z</time></trkpt>
</trkseg>
</trk>
<trk>
<name>hcmsr13</name>
<cmt>q</cmt>
<desc>Saint-Rémy Chemin n°13 </desc>
<link href="https://chemins.be/saintremy/chemin/13"/><trkseg>
<trkpt lat="50.039516" lon="4.289614"><time>2026-05-03T04:44:15Z</time></trkpt>
<trkpt lat="50.038716" lon="4.289185"><time>2026-05-03T04:54:15Z</time></trkpt>
<trkpt lat="50.034857" lon="4.288369"><time>2026-05-03T05:04:15Z</time></trkpt>
</trkseg></trk>
<trk>
<name>hcmsr13</name>
<cmt>v</cmt>
<desc>Saint-Rémy Chemin n°13 </desc>
<link href="https://chemins.be/saintremy/chemin/13"/><trkseg>
<trkpt lat="50.034857" lon="4.288369"><time>2026-05-03T05:04:15Z</time></trkpt>
<trkpt lat="50.034403" lon="4.287530"><time>2026-05-03T05:14:15Z</time></trkpt>
<trkpt lat="50.034034" lon="4.287093"><time>2026-05-03T05:24:15Z</time></trkpt>
<trkpt lat="50.033692" lon="4.287075"><time>2026-05-03T05:34:15Z</time></trkpt>
</trkseg></trk>
<trk>
<name>hcmsr13</name>
<cmt>r</cmt>
<desc>Saint-Rémy Chemin n°13 </desc>
<link href="https://chemins.be/saintremy/chemin/13"/><trkseg>
<trkpt lat="50.033692" lon="4.287075"><time>2026-05-03T05:34:15Z</time></trkpt>
<trkpt lat="50.033185" lon="4.286509"><time>2026-05-03T05:44:15Z</time></trkpt>
<trkpt lat="50.032507" lon="4.284235"><time>2026-05-03T05:54:15Z</time></trkpt>
</trkseg></trk>
<trk>
<name>hcmsr13</name>
<cmt>v</cmt>
<desc>Saint-Rémy Chemin n°13 </desc>
<link href="https://chemins.be/saintremy/chemin/13"/><trkseg>
<trkpt lat="50.032507" lon="4.284235"><time>2026-05-03T05:54:15Z</time></trkpt>
<trkpt lat="50.032347" lon="4.282784"><time>2026-05-03T06:04:15Z</time></trkpt>
<trkpt lat="50.032049" lon="4.282303"><time>2026-05-03T06:14:15Z</time></trkpt>
<trkpt lat="50.031371" lon="4.282363"><time>2026-05-03T06:24:15Z</time></trkpt>
</trkseg>
</trk>
<trk>
<name>hcmsr16</name>
<cmt>v</cmt>
<desc>Saint-Rémy Chemin n°16 </desc>
<link href="https://chemins.be/saintremy/chemin/16"/><trkseg>
<trkpt lat="50.032595" lon="4.277995"><time>2026-05-03T04:44:15Z</time></trkpt>
<trkpt lat="50.031774" lon="4.276321"><time>2026-05-03T04:54:15Z</time></trkpt>
<trkpt lat="50.031862" lon="4.275051"><time>2026-05-03T05:04:15Z</time></trkpt>
<trkpt lat="50.032281" lon="4.274106"><time>2026-05-03T05:14:15Z</time></trkpt>
</trkseg>
</trk>
<trk>
<name>hcmsr18</name>
<cmt>v</cmt>
<desc>Saint-Rémy Chemin n°18 </desc>
<link href="https://chemins.be/saintremy/chemin/18"/><trkseg>
<trkpt lat="50.030715" lon="4.277531"><time>2026-05-03T04:44:15Z</time></trkpt>
<trkpt lat="50.031818" lon="4.276149"><time>2026-05-03T04:54:15Z</time></trkpt>
</trkseg>
</trk>
<trk>
<name>hcmsr19</name>
<cmt>r</cmt>
<desc>Saint-Rémy Chemin n°19 </desc>
<link href="https://chemins.be/saintremy/chemin/19"/><trkseg>
<trkpt lat="50.031511" lon="4.282331"><time>2026-05-03T04:44:15Z</time></trkpt>
<trkpt lat="50.031564" lon="4.281661"><time>2026-05-03T04:54:15Z</time></trkpt>
<trkpt lat="50.032175" lon="4.281185"><time>2026-05-03T05:04:15Z</time></trkpt>
</trkseg></trk>
<trk>
<name>hcmsr19</name>
<cmt>v</cmt>
<desc>Saint-Rémy Chemin n°19 </desc>
<link href="https://chemins.be/saintremy/chemin/19"/><trkseg>
<trkpt lat="50.032175" lon="4.281185"><time>2026-05-03T05:04:15Z</time></trkpt>
<trkpt lat="50.032535" lon="4.281282"><time>2026-05-03T05:14:15Z</time></trkpt>
<trkpt lat="50.032652" lon="4.281296"><time>2026-05-03T05:24:15Z</time></trkpt>
<trkpt lat="50.033344" lon="4.280932"><time>2026-05-03T05:34:15Z</time></trkpt>
<trkpt lat="50.033694" lon="4.280736"><time>2026-05-03T05:44:15Z</time></trkpt>
</trkseg>
</trk>
<trk>
<name>hcmsr2</name>
<cmt>v</cmt>
<desc>Saint-Rémy Chemin n°2 </desc>
<link href="https://chemins.be/saintremy/chemin/2"/><trkseg>
<trkpt lat="50.042921" lon="4.294424"><time>2026-05-03T04:44:15Z</time></trkpt>
<trkpt lat="50.042999" lon="4.291756"><time>2026-05-03T04:54:15Z</time></trkpt>
<trkpt lat="50.042641" lon="4.291284"><time>2026-05-03T05:04:15Z</time></trkpt>
<trkpt lat="50.039488" lon="4.289686"><time>2026-05-03T05:14:15Z</time></trkpt>
<trkpt lat="50.038961" lon="4.287321"><time>2026-05-03T05:24:15Z</time></trkpt>
<trkpt lat="50.038592" lon="4.286940"><time>2026-05-03T05:34:15Z</time></trkpt>
</trkseg>
</trk>
<trk>
<name>hcmsr20</name>
<cmt>v</cmt>
<desc>Saint-Rémy Sentier n°20 </desc>
<link href="https://chemins.be/saintremy/sentier/20"/><trkseg>
<trkpt lat="50.039043" lon="4.305387"><time>2026-05-03T04:44:15Z</time></trkpt>
<trkpt lat="50.037742" lon="4.302366"><time>2026-05-03T04:54:15Z</time></trkpt>
<trkpt lat="50.035868" lon="4.302641"><time>2026-05-03T05:04:15Z</time></trkpt>
<trkpt lat="50.033830" lon="4.300671"><time>2026-05-03T05:14:15Z</time></trkpt>
<trkpt lat="50.031876" lon="4.298212"><time>2026-05-03T05:24:15Z</time></trkpt>
<trkpt lat="50.031060" lon="4.296427"><time>2026-05-03T05:34:15Z</time></trkpt>
</trkseg>
</trk>
<trk>
<name>hcmsr22</name>
<cmt>v</cmt>
<desc>Saint-Rémy Chemin n°22 </desc>
<link href="https://chemins.be/saintremy/chemin/22"/><trkseg>
<trkpt lat="50.055443" lon="4.278304"><time>2026-05-03T04:44:15Z</time></trkpt>
<trkpt lat="50.057845" lon="4.273737"><time>2026-05-03T04:54:15Z</time></trkpt>
</trkseg>
</trk>
<trk>
<name>hcmsr24</name>
<cmt>r</cmt>
<desc>Saint-Rémy Chemin n°24 Le Feuillet</desc>
<link href="https://chemins.be/saintremy/chemin/24"/><trkseg>
<trkpt lat="50.044105" lon="4.298355"><time>2026-05-03T04:44:15Z</time></trkpt>
<trkpt lat="50.043660" lon="4.299829"><time>2026-05-03T04:54:15Z</time></trkpt>
<trkpt lat="50.043536" lon="4.300240"><time>2026-05-03T05:04:15Z</time></trkpt>
</trkseg></trk>
<trk>
<name>hcmsr24</name>
<cmt>d</cmt>
<desc>Saint-Rémy Chemin n°24 Le Feuillet</desc>
<link href="https://chemins.be/saintremy/chemin/24"/><trkseg>
<trkpt lat="50.043536" lon="4.300240"><time>2026-05-03T05:04:15Z</time></trkpt>
<trkpt lat="50.043357" lon="4.300836"><time>2026-05-03T05:14:15Z</time></trkpt>
<trkpt lat="50.042939" lon="4.301022"><time>2026-05-03T05:24:15Z</time></trkpt>
<trkpt lat="50.042548" lon="4.301494"><time>2026-05-03T05:34:15Z</time></trkpt>
<trkpt lat="50.042548" lon="4.301813"><time>2026-05-03T05:44:15Z</time></trkpt>
</trkseg></trk>
<trk>
<name>hcmsr24</name>
<cmt>b</cmt>
<desc>Saint-Rémy Chemin n°24 Le Feuillet</desc>
<link href="https://chemins.be/saintremy/chemin/24"/><trkseg>
<trkpt lat="50.042548" lon="4.301813"><time>2026-05-03T05:44:15Z</time></trkpt>
<trkpt lat="50.042573" lon="4.302328"><time>2026-05-03T05:54:15Z</time></trkpt>
</trkseg></trk>
<trk>
<name>hcmsr24</name>
<cmt>v</cmt>
<desc>Saint-Rémy Chemin n°24 Le Feuillet</desc>
<link href="https://chemins.be/saintremy/chemin/24"/><trkseg>
<trkpt lat="50.042573" lon="4.302328"><time>2026-05-03T05:54:15Z</time></trkpt>
<trkpt lat="50.042940" lon="4.303292"><time>2026-05-03T06:04:15Z</time></trkpt>
</trkseg>
</trk>
<trk>
<name>hcmsr25</name>
<cmt>v</cmt>
<desc>Saint-Rémy Sentier n°25 </desc>
<link href="https://chemins.be/saintremy/sentier/25"/><trkseg>
<trkpt lat="50.030385" lon="4.280642"><time>2026-05-03T04:44:15Z</time></trkpt>
<trkpt lat="50.020140" lon="4.282308"><time>2026-05-03T04:54:15Z</time></trkpt>
</trkseg>
</trk>
<trk>
<name>hcmsr26</name>
<cmt>x</cmt>
<desc>Saint-Rémy Chemin n°26 </desc>
<link href="https://chemins.be/saintremy/chemin/26"/><trkseg>
<trkpt lat="50.054875" lon="4.287661"><time>2026-05-03T04:44:15Z</time></trkpt>
<trkpt lat="50.057467" lon="4.295413"><time>2026-05-03T04:54:15Z</time></trkpt>
</trkseg></trk>
<trk>
<name>hcmsr26</name>
<cmt>v</cmt>
<desc>Saint-Rémy Chemin n°26 </desc>
<link href="https://chemins.be/saintremy/chemin/26"/><trkseg>
<trkpt lat="50.057467" lon="4.295413"><time>2026-05-03T04:54:15Z</time></trkpt>
<trkpt lat="50.057776" lon="4.296504"><time>2026-05-03T05:04:15Z</time></trkpt>
</trkseg>
</trk>
<trk>
<name>hcmsr27</name>
<cmt>q</cmt>
<desc>Saint-Rémy Sentier n°27 </desc>
<link href="https://chemins.be/saintremy/sentier/27"/><trkseg>
<trkpt lat="50.067794" lon="4.279346"><time>2026-05-03T04:44:15Z</time></trkpt>
<trkpt lat="50.062089" lon="4.291330"><time>2026-05-03T04:54:15Z</time></trkpt>
<trkpt lat="50.060796" lon="4.294045"><time>2026-05-03T05:04:15Z</time></trkpt>
</trkseg>
</trk>
<trk>
<name>hcmsr28</name>
<cmt>q</cmt>
<desc>Saint-Rémy Sentier n°28 </desc>
<link href="https://chemins.be/saintremy/sentier/28"/><trkseg>
<trkpt lat="50.046349" lon="4.294453"><time>2026-05-03T04:44:15Z</time></trkpt>
<trkpt lat="50.048196" lon="4.291792"><time>2026-05-03T04:54:15Z</time></trkpt>
<trkpt lat="50.051682" lon="4.285569"><time>2026-05-03T05:04:15Z</time></trkpt>
<trkpt lat="50.055195" lon="4.280033"><time>2026-05-03T05:14:15Z</time></trkpt>
</trkseg>
</trk>
<trk>
<name>hcmsr29</name>
<cmt>q</cmt>
<desc>Saint-Rémy Sentier n°29 </desc>
<link href="https://chemins.be/saintremy/sentier/29"/><trkseg>
<trkpt lat="50.046054" lon="4.298661"><time>2026-05-03T04:44:15Z</time></trkpt>
<trkpt lat="50.045775" lon="4.299096"><time>2026-05-03T04:54:15Z</time></trkpt>
<trkpt lat="50.045717" lon="4.299712"><time>2026-05-03T05:04:15Z</time></trkpt>
<trkpt lat="50.045837" lon="4.300700"><time>2026-05-03T05:14:15Z</time></trkpt>
<trkpt lat="50.044580" lon="4.301005"><time>2026-05-03T05:24:15Z</time></trkpt>
<trkpt lat="50.042937" lon="4.303280"><time>2026-05-03T05:34:15Z</time></trkpt>
</trkseg>
</trk>
<trk>
<name>hcmsr30</name>
<cmt>r</cmt>
<desc>Saint-Rémy Sentier n°30 </desc>
<link href="https://chemins.be/saintremy/sentier/30"/><trkseg>
<trkpt lat="50.045903" lon="4.297068"><time>2026-05-03T04:44:15Z</time></trkpt>
<trkpt lat="50.045435" lon="4.297435"><time>2026-05-03T04:54:15Z</time></trkpt>
</trkseg></trk>
<trk>
<name>hcmsr30</name>
<cmt>q</cmt>
<desc>Saint-Rémy Sentier n°30 </desc>
<link href="https://chemins.be/saintremy/sentier/30"/><trkseg>
<trkpt lat="50.045435" lon="4.297435"><time>2026-05-03T04:54:15Z</time></trkpt>
<trkpt lat="50.045221" lon="4.297602"><time>2026-05-03T05:04:15Z</time></trkpt>
<trkpt lat="50.045151" lon="4.297845"><time>2026-05-03T05:14:15Z</time></trkpt>
<trkpt lat="50.045042" lon="4.297970"><time>2026-05-03T05:24:15Z</time></trkpt>
</trkseg>
</trk>
<trk>
<name>hcmsr31</name>
<cmt>q</cmt>
<desc>Saint-Rémy Sentier n°31 </desc>
<link href="https://chemins.be/saintremy/sentier/31"/><trkseg>
<trkpt lat="50.045083" lon="4.295083"><time>2026-05-03T04:44:15Z</time></trkpt>
<trkpt lat="50.044749" lon="4.294960"><time>2026-05-03T04:54:15Z</time></trkpt>
<trkpt lat="50.044494" lon="4.294230"><time>2026-05-03T05:04:15Z</time></trkpt>
<trkpt lat="50.045142" lon="4.294321"><time>2026-05-03T05:14:15Z</time></trkpt>
</trkseg>
</trk>
<trk>
<name>hcmsr33</name>
<cmt>r</cmt>
<desc>Saint-Rémy Sentier n°33 Rue de la Grattière</desc>
<link href="https://chemins.be/saintremy/sentier/33"/><trkseg>
<trkpt lat="50.038833" lon="4.290166"><time>2026-05-03T04:44:15Z</time></trkpt>
<trkpt lat="50.040068" lon="4.291878"><time>2026-05-03T04:54:15Z</time></trkpt>
<trkpt lat="50.042458" lon="4.293686"><time>2026-05-03T05:04:15Z</time></trkpt>
<trkpt lat="50.043126" lon="4.294901"><time>2026-05-03T05:14:15Z</time></trkpt>
</trkseg>
</trk>
<trk>
<name>hcmsr34</name>
<cmt>q</cmt>
<desc>Saint-Rémy Sentier n°34 </desc>
<link href="https://chemins.be/saintremy/sentier/34"/><trkseg>
<trkpt lat="50.042531" lon="4.302047"><time>2026-05-03T04:44:15Z</time></trkpt>
<trkpt lat="50.040026" lon="4.303902"><time>2026-05-03T04:54:15Z</time></trkpt>
<trkpt lat="50.039378" lon="4.306005"><time>2026-05-03T05:04:15Z</time></trkpt>
</trkseg>
</trk>
<trk>
<name>hcmsr35</name>
<cmt>q</cmt>
<desc>Saint-Rémy Sentier n°35 </desc>
<link href="https://chemins.be/saintremy/sentier/35"/><trkseg>
<trkpt lat="50.033345" lon="4.278501"><time>2026-05-03T04:44:15Z</time></trkpt>
<trkpt lat="50.033632" lon="4.280776"><time>2026-05-03T04:54:15Z</time></trkpt>
<trkpt lat="50.033444" lon="4.280939"><time>2026-05-03T05:04:15Z</time></trkpt>
<trkpt lat="50.033356" lon="4.281840"><time>2026-05-03T05:14:15Z</time></trkpt>
<trkpt lat="50.034282" lon="4.285204"><time>2026-05-03T05:24:15Z</time></trkpt>
<trkpt lat="50.034357" lon="4.287291"><time>2026-05-03T05:34:15Z</time></trkpt>
</trkseg></trk>
<trk>
<name>hcmsr35</name>
<cmt>v</cmt>
<desc>Saint-Rémy Sentier n°35 </desc>
<link href="https://chemins.be/saintremy/sentier/35"/><trkseg>
<trkpt lat="50.034357" lon="4.287291"><time>2026-05-03T05:34:15Z</time></trkpt>
<trkpt lat="50.034382" lon="4.287581"><time>2026-05-03T05:44:15Z</time></trkpt>
<trkpt lat="50.034809" lon="4.288381"><time>2026-05-03T05:54:15Z</time></trkpt>
<trkpt lat="50.034437" lon="4.288380"><time>2026-05-03T06:04:15Z</time></trkpt>
</trkseg></trk>
<trk>
<name>hcmsr35</name>
<cmt>q</cmt>
<desc>Saint-Rémy Sentier n°35 </desc>
<link href="https://chemins.be/saintremy/sentier/35"/><trkseg>
<trkpt lat="50.034437" lon="4.288380"><time>2026-05-03T06:04:15Z</time></trkpt>
<trkpt lat="50.035197" lon="4.290929"><time>2026-05-03T06:14:15Z</time></trkpt>
<trkpt lat="50.037121" lon="4.292989"><time>2026-05-03T06:24:15Z</time></trkpt>
<trkpt lat="50.037981" lon="4.295324"><time>2026-05-03T06:34:15Z</time></trkpt>
<trkpt lat="50.039448" lon="4.297822"><time>2026-05-03T06:44:15Z</time></trkpt>
<trkpt lat="50.040761" lon="4.300057"><time>2026-05-03T06:54:15Z</time></trkpt>
<trkpt lat="50.042403" lon="4.302220"><time>2026-05-03T07:04:15Z</time></trkpt>
<trkpt lat="50.042822" lon="4.303611"><time>2026-05-03T07:14:15Z</time></trkpt>
</trkseg>
</trk>
<trk>
<name>hcmsr36</name>
<cmt>q</cmt>
<desc>Saint-Rémy Sentier n°36 </desc>
<link href="https://chemins.be/saintremy/sentier/36"/><trkseg>
<trkpt lat="50.034012" lon="4.287076"><time>2026-05-03T04:44:15Z</time></trkpt>
<trkpt lat="50.033825" lon="4.287564"><time>2026-05-03T04:54:15Z</time></trkpt>
<trkpt lat="50.033461" lon="4.288517"><time>2026-05-03T05:04:15Z</time></trkpt>
<trkpt lat="50.033240" lon="4.290217"><time>2026-05-03T05:14:15Z</time></trkpt>
</trkseg>
</trk>
<trk>
<name>hcmsr37</name>
<cmt>q</cmt>
<desc>Saint-Rémy Sentier n°37 </desc>
<link href="https://chemins.be/saintremy/sentier/37"/><trkseg>
<trkpt lat="50.031834" lon="4.276012"><time>2026-05-03T04:44:15Z</time></trkpt>
<trkpt lat="50.030687" lon="4.273909"><time>2026-05-03T04:54:15Z</time></trkpt>
<trkpt lat="50.030660" lon="4.273214"><time>2026-05-03T05:04:15Z</time></trkpt>
</trkseg>
</trk>
<trk>
<name>hcmsr38</name>
<cmt>q</cmt>
<desc>Saint-Rémy Sentier n°38 </desc>
<link href="https://chemins.be/saintremy/sentier/38"/><trkseg>
<trkpt lat="50.041893" lon="4.290778"><time>2026-05-03T04:44:15Z</time></trkpt>
<trkpt lat="50.040728" lon="4.287785"><time>2026-05-03T04:54:15Z</time></trkpt>
<trkpt lat="50.040666" lon="4.286111"><time>2026-05-03T05:04:15Z</time></trkpt>
<trkpt lat="50.040253" lon="4.285961"><time>2026-05-03T05:14:15Z</time></trkpt>
<trkpt lat="50.040032" lon="4.282656"><time>2026-05-03T05:24:15Z</time></trkpt>
<trkpt lat="50.039701" lon="4.280787"><time>2026-05-03T05:34:15Z</time></trkpt>
<trkpt lat="50.038978" lon="4.276713"><time>2026-05-03T05:44:15Z</time></trkpt>
</trkseg>
</trk>
<trk>
<name>hcmsr39</name>
<cmt>v</cmt>
<desc>Saint-Rémy Sentier n°39 </desc>
<link href="https://chemins.be/saintremy/sentier/39"/><trkseg>
<trkpt lat="50.037787" lon="4.272073"><time>2026-05-03T04:44:15Z</time></trkpt>
<trkpt lat="50.038680" lon="4.276022"><time>2026-05-03T04:54:15Z</time></trkpt>
<trkpt lat="50.039239" lon="4.277291"><time>2026-05-03T05:04:15Z</time></trkpt>
</trkseg></trk>
<trk>
<name>hcmsr39</name>
<cmt>q</cmt>
<desc>Saint-Rémy Sentier n°39 </desc>
<link href="https://chemins.be/saintremy/sentier/39"/><trkseg>
<trkpt lat="50.039239" lon="4.277291"><time>2026-05-03T05:04:15Z</time></trkpt>
<trkpt lat="50.042507" lon="4.284210"><time>2026-05-03T05:14:15Z</time></trkpt>
<trkpt lat="50.044261" lon="4.284891"><time>2026-05-03T05:24:15Z</time></trkpt>
</trkseg>
</trk>
<trk>
<name>hcmsr4</name>
<cmt>v</cmt>
<desc>Saint-Rémy Chemin n°4 Rue des Carrières</desc>
<link href="https://chemins.be/saintremy/chemin/4"/><trkseg>
<trkpt lat="50.047377" lon="4.278595"><time>2026-05-03T04:44:15Z</time></trkpt>
<trkpt lat="50.047197" lon="4.277136"><time>2026-05-03T04:54:15Z</time></trkpt>
<trkpt lat="50.047514" lon="4.275141"><time>2026-05-03T05:04:15Z</time></trkpt>
<trkpt lat="50.048127" lon="4.274089"><time>2026-05-03T05:14:15Z</time></trkpt>
<trkpt lat="50.047652" lon="4.270785"><time>2026-05-03T05:24:15Z</time></trkpt>
</trkseg>
</trk>
<trk>
<name>hcmsr40</name>
<cmt>q</cmt>
<desc>Saint-Rémy Sentier n°40 Chemin de Villers-la-Tour</desc>
<link href="https://chemins.be/saintremy/sentier/40"/><trkseg>
<trkpt lat="50.044236" lon="4.284158"><time>2026-05-03T04:44:15Z</time></trkpt>
<trkpt lat="50.043719" lon="4.280736"><time>2026-05-03T04:54:15Z</time></trkpt>
<trkpt lat="50.042092" lon="4.277344"><time>2026-05-03T05:04:15Z</time></trkpt>
</trkseg></trk>
<trk>
<name>hcmsr40</name>
<cmt>v</cmt>
<desc>Saint-Rémy Sentier n°40 Chemin de Villers-la-Tour</desc>
<link href="https://chemins.be/saintremy/sentier/40"/><trkseg>
<trkpt lat="50.042092" lon="4.277344"><time>2026-05-03T05:04:15Z</time></trkpt>
<trkpt lat="50.041479" lon="4.276412"><time>2026-05-03T05:14:15Z</time></trkpt>
</trkseg></trk>
<trk>
<name>hcmsr40</name>
<cmt>q</cmt>
<desc>Saint-Rémy Sentier n°40 Chemin de Villers-la-Tour</desc>
<link href="https://chemins.be/saintremy/sentier/40"/><trkseg>
<trkpt lat="50.041479" lon="4.276412"><time>2026-05-03T05:14:15Z</time></trkpt>
<trkpt lat="50.040825" lon="4.274320"><time>2026-05-03T05:24:15Z</time></trkpt>
<trkpt lat="50.040694" lon="4.271788"><time>2026-05-03T05:34:15Z</time></trkpt>
<trkpt lat="50.040901" lon="4.271091"><time>2026-05-03T05:44:15Z</time></trkpt>
<trkpt lat="50.040170" lon="4.268451"><time>2026-05-03T05:54:15Z</time></trkpt>
</trkseg>
</trk>
<trk>
<name>hcmsr41</name>
<cmt>q</cmt>
<desc>Saint-Rémy Sentier n°41 </desc>
<link href="https://chemins.be/saintremy/sentier/41"/><trkseg>
<trkpt lat="50.029283" lon="4.274394"><time>2026-05-03T04:44:15Z</time></trkpt>
<trkpt lat="50.030209" lon="4.276025"><time>2026-05-03T04:54:15Z</time></trkpt>
</trkseg></trk>
<trk>
<name>hcmsr41</name>
<cmt>r</cmt>
<desc>Saint-Rémy Sentier n°41 </desc>
<link href="https://chemins.be/saintremy/sentier/41"/><trkseg>
<trkpt lat="50.030209" lon="4.276025"><time>2026-05-03T04:54:15Z</time></trkpt>
<trkpt lat="50.031098" lon="4.278340"><time>2026-05-03T05:04:15Z</time></trkpt>
<trkpt lat="50.030122" lon="4.279688"><time>2026-05-03T05:14:15Z</time></trkpt>
</trkseg></trk>
<trk>
<name>hcmsr41</name>
<cmt>q</cmt>
<desc>Saint-Rémy Sentier n°41 </desc>
<link href="https://chemins.be/saintremy/sentier/41"/><trkseg>
<trkpt lat="50.030122" lon="4.279688"><time>2026-05-03T05:14:15Z</time></trkpt>
<trkpt lat="50.029746" lon="4.280162"><time>2026-05-03T05:24:15Z</time></trkpt>
<trkpt lat="50.029029" lon="4.284797"><time>2026-05-03T05:34:15Z</time></trkpt>
<trkpt lat="50.028886" lon="4.286994"><time>2026-05-03T05:44:15Z</time></trkpt>
<trkpt lat="50.026647" lon="4.292230"><time>2026-05-03T05:54:15Z</time></trkpt>
<trkpt lat="50.026382" lon="4.294650"><time>2026-05-03T06:04:15Z</time></trkpt>
</trkseg>
</trk>
<trk>
<name>hcmsr5</name>
<cmt>d</cmt>
<desc>Saint-Rémy Chemin n°5 Ravel 109/2</desc>
<link href="https://chemins.be/saintremy/chemin/5"/><trkseg>
<trkpt lat="50.067339" lon="4.290900"><time>2026-05-03T04:44:15Z</time></trkpt>
<trkpt lat="50.066582" lon="4.292123"><time>2026-05-03T04:54:15Z</time></trkpt>
</trkseg></trk>
<trk>
<name>hcmsr5</name>
<cmt>v</cmt>
<desc>Saint-Rémy Chemin n°5 Ravel 109/2</desc>
<link href="https://chemins.be/saintremy/chemin/5"/><trkseg>
<trkpt lat="50.066582" lon="4.292123"><time>2026-05-03T04:54:15Z</time></trkpt>
<trkpt lat="50.063381" lon="4.293129"><time>2026-05-03T05:04:15Z</time></trkpt>
<trkpt lat="50.061226" lon="4.293830"><time>2026-05-03T05:14:15Z</time></trkpt>
<trkpt lat="50.057846" lon="4.296548"><time>2026-05-03T05:24:15Z</time></trkpt>
<trkpt lat="50.055278" lon="4.296674"><time>2026-05-03T05:34:15Z</time></trkpt>
<trkpt lat="50.053379" lon="4.297119"><time>2026-05-03T05:44:15Z</time></trkpt>
</trkseg>
</trk>
<trk>
<name>hcmsrL109</name>
<cmt>v</cmt>
<desc>Saint-Rémy Chemin n°L109 Ravel 109/2</desc>
<link href="https://chemins.be/saintremy/chemin/L109"/><trkseg>
<trkpt lat="50.068424" lon="4.287350"><time>2026-05-03T04:44:15Z</time></trkpt>
<trkpt lat="50.067497" lon="4.287504"><time>2026-05-03T04:54:15Z</time></trkpt>
<trkpt lat="50.066457" lon="4.287714"><time>2026-05-03T05:04:15Z</time></trkpt>
<trkpt lat="50.058259" lon="4.294072"><time>2026-05-03T05:14:15Z</time></trkpt>
<trkpt lat="50.058052" lon="4.293975"><time>2026-05-03T05:24:15Z</time></trkpt>
<trkpt lat="50.057295" lon="4.294512"><time>2026-05-03T05:34:15Z</time></trkpt>
<trkpt lat="50.057053" lon="4.294962"><time>2026-05-03T05:44:15Z</time></trkpt>
<trkpt lat="50.053436" lon="4.297694"><time>2026-05-03T05:54:15Z</time></trkpt>
</trkseg>
</trk>
<trk>
<name>hcmsrL156</name>
<cmt>v</cmt>
<desc>Saint-Rémy Chemin n°L156 </desc>
<link href="https://chemins.be/saintremy/chemin/L156"/><trkseg>
<trkpt lat="50.036575" lon="4.273779"><time>2026-05-03T04:44:15Z</time></trkpt>
<trkpt lat="50.038832" lon="4.286729"><time>2026-05-03T04:54:15Z</time></trkpt>
<trkpt lat="50.039599" lon="4.290175"><time>2026-05-03T05:04:15Z</time></trkpt>
<trkpt lat="50.043545" lon="4.302943"><time>2026-05-03T05:14:15Z</time></trkpt>
</trkseg>
</trk>
</gpx>